Regional Weather Roundup
Issued by NWS

Home | Current Version | Previous Version | Graphics & Text | Print | Product List | Glossary Off
Versions: 1 2 3 4 5 6 7 8 9 10 11 12 13 14 15 16 17 18 19 20 21 22 23 24 25 26 27 28 29 30 31 32 33 34 35 36 37 38 39 40 41 42 43 44 45 46 47 48 49 50

000
ASUS45 KTFX 011410
RWRMT
MONTANA REGIONAL WEATHER ROUNDUP
NATIONAL WEATHER SERVICE GREAT FALLS MT
800 AM MDT SAT AUG 01 2015

NOTE: "FAIR" INDICATES FEW OR NO CLOUDS BELOW 12000 FEET WITH NO
SIGNIFICANT WEATHER AND/OR OBSTRUCTIONS TO VISIBILITY.

MTZ001>007-043-011500-
WEST OF THE DIVIDE

CITY           SKY/WX    TMP DP  RH WIND       PRES   REMARKS
KALISPELL      SUNNY     55  42  61 CALM      30.03R
MISSOULA       SUNNY     59  38  45 CALM      30.12R
BUTTE          SUNNY     50  34  54 CALM      30.26R
MULLAN PASS    SUNNY     70  18  13 VRB3      30.23R
DEER LODGE       N/A     59  37  44 CALM      30.23R
EUREKA           N/A     59  36  41 CALM      30.03R
HAMILTON         N/A     61  36  39 SW3       30.12S
LIBBY            N/A     55  36  47 CALM      30.03S
PLAINS           N/A     54  39  56 CALM      30.05R
RONAN            N/A     59  45  59 SE2       30.08R
$$

MTZ008-052>055-011500-
SOUTHWEST MONTANA

CITY           SKY/WX    TMP DP  RH WIND       PRES   REMARKS
BOZEMAN        SUNNY     57  44  62 S3        30.18S
DILLON         SUNNY     55  38  52 SW10      30.24R
W YELLOWSTONE  SUNNY     45  36  70 CALM      30.37R
THREE FORKS      N/A     53  33  46 CALM      30.15R
TWIN BRIDGES     N/A     53  40  61 S5        30.19R
$$

MTZ009-010-012-014-046-048-049-054-011500-
EAST SLOPES AND CENTRAL MONTANA

CITY           SKY/WX    TMP DP  RH WIND       PRES   REMARKS
CUT BANK       SUNNY     69  35  28 VRB3      30.02S
GREAT FALLS    SUNNY     70  36  28 SW7       30.04S
MALMSTROM AFB  SUNNY     67  38  34 W7        30.04S
HELENA         SUNNY     59  41  51 CALM      30.15S
CONRAD           N/A     71  41  33 S6        30.03S
$$

MTZ011-013-016-021-045-047-050-051-011500-
NORTH CENTRAL MONTANA

CITY           SKY/WX    TMP DP  RH WIND       PRES   REMARKS
HAVRE          SUNNY     68  46  45 SW16      29.94R
LEWISTOWN      SUNNY     70  45  40 CALM      30.08R
CHINOOK          N/A     63  52  67 W3        29.93S
FORT BENTON      N/A     70  45  40 CALM      29.99S
$$

MTZ017>020-022>027-061-062-011500-
NORTHEAST MONTANA

CITY           SKY/WX    TMP DP  RH WIND       PRES   REMARKS
GLASGOW        SUNNY     65  51  60 SE15      29.92F
JORDAN           N/A     68  46  45 CALM      29.96F
SIDNEY         SUNNY    N/A N/A N/A CALM      29.93F
WOLF POINT     SUNNY     64  52  64 CALM      29.95S
MALTA            N/A     64  54  70 CALM      29.89S
PLENTYWOOD       N/A     68  54  60 SE6       29.92F
POPLAR           N/A     66  54  63 CALM      29.94F
SCOBEY           N/A     62  49  62 E2        29.93F
$$

MTZ028>42-056>058-011500-
SOUTHCENTRAL AND SOUTHEAST MONTANA

CITY           SKY/WX    TMP DP  RH WIND       PRES   REMARKS
BAKER          SUNNY     73  50  44 W5        29.99F
BILLINGS       MOSUNNY   64  37  36 SW15      30.08S
LIVINGSTON     SUNNY     56  39  53 NW10      30.16S
MILES CITY     SUNNY     69  43  38 W5        29.98S
FORSYTH          N/A     66  43  42 SW5       30.00S
LAUREL           N/A     63  35  35 SW7       30.06S
ROUNDUP          N/A     62  40  44 S13       29.96S
$$

REGIONAL REPORTS...DAKOTAS

CITY           SKY/WX    TMP DP  RH WIND       PRES   REMARKS
WILLISTON      SUNNY     70  55  59 S3        29.93F
MINOT          SUNNY     66  52  60 SE5       29.91F
DICKINSON      SUNNY     66  52  60 NW12      29.93R
BEACH          FAIR      64  55  72 N3        29.98S
CROSBY         FAIR      64  57  77 S6        29.93F
BISMARCK       MOSUNNY   67  59  75 E5        29.90F
GRAND FORKS    MOSUNNY   70  56  61 W5        29.92F
FARGO          SUNNY     69  54  58 CALM      29.95F
BUFFALO SD       N/A     72  54  53 W7        29.93S
RAPID CITY     MOSUNNY   72  58  61 S6        30.01S
$$

REGIONAL REPORTS...WYOMING/IDAHO/WASHINGTON

CITY           SKY/WX    TMP DP  RH WIND       PRES   REMARKS
GILLETTE       SUNNY     74  45  35 W7        30.11R
SHERIDAN       SUNNY     69  47  45 CALM      30.10S
BUFFALO WY     SUNNY     76  36  23 NW9       30.18R
CODY           SUNNY     72  37  28 W6        30.19S
YELLOWSTONE LA   N/A     45  36  70 CALM      30.44R
IDAHO FALLS    SUNNY     54  45  71 CALM      30.20R
SALMON         SUNNY     52  43  71 N3        30.21R
BOISE          SUNNY     73  36  25 SE10      30.03R
SPOKANE        MOSUNNY   70  34  26 SE7       29.97R
$$

REGIONAL REPORTS...ALBERTA

CITY           SKY/WX    TMP DP  RH WIND       PRES   REMARKS
EDMONTON       PTSUNNY   57  52  82 W7        30.01R
CALGARY        MOSUNNY   63  48  59 VRB2      29.99S
LETHBRIDGE     SUNNY     61  43  51 SW8       29.97S
MEDICINE HAT   MOSUNNY   64  46  52 SW10      29.91R
WATERTON GATE    N/A     66  37  34 S8          N/A
MILK RIVER       N/A     63  41  45 W8          N/A
ONEFOUR          N/A     68  41  37 NW13        N/A
$$

REGIONAL REPORTS...SASKATCHEWAN

CITY           SKY/WX    TMP DP  RH WIND       PRES   REMARKS
SWIFT CURRENT  MOSUNNY   68  54  60 S12G18    29.87F
REGINA         MOSUNNY   64  54  68 S7        29.90F
SASKATOON      PTSUNNY   64  57  77 N6        29.89S
CYPRESS HILLS    N/A     72  37  28 W7          N/A
VAL MARIE        N/A     63  54  72 SW1         N/A
ROCKGLEN         N/A     64  54  68 S9          N/A
ASSINIBOIA       N/A     59  57  94 W10         N/A
$$


USA.gov is the U.S. government's official web portal to all federal, state and local government web resources and services.